www.pogodaiklimat.ru

Погода и климат >> Архив погоды >> Россия >> город Санкт-Петербург >> Ломоносов


ПОГОДА в Ломоносове

  • Прогноз погоды в Ломоносове
  • Монитор погоды в Ломоносове

АРХИВ ПОГОДЫ в Ломоносове

Время (UTC), дата Ветер
(напр.,м/с)
 
Видим.   Явления Облачность Т
(С)
Тd
(С)
f
(%)
Тe
(С)
Тes
(С)
Комфортность P
(гПа)
Po
(гПа)
Тmin
(С)
Tmax
(С)
R
(мм)
R24
(мм)
S
(см)
03 20.05 В 1 20 км 9/3 600 м
[Sc Ac trans Ci fib]
+13.8 +9.9 77 +14 +15 1019.8 1019.3 +12.9
06 20.05 В 2 10 км 6/0
[Ac trans Cs]
+15.9 +10.4 70 +16 +21 1019.5 1019.0 +12.9
09 20.05 В 2 10 км 9/0
[Cs]
+18.8 +12.4 66 +20 +31 1018.8 1018.3
12 20.05 В 2 10 км 9/1 600 м
[Cu hum Cs]
+21.7 +12.2 55 +24 +32 комфорт 1017.6 1017.2
15 20.05 В 1 10 км 8/1 600 м
[Cu hum Cs]
+22.1 +13.3 57 +25 +29 комфорт 1016.0 1015.6
18 20.05 ЮВ 1 10 км 9/1 600 м
[Cu Sc Ac cast Ci fib]
+22.0 +12.5 55 +25 +25 комфорт 1015.2 1014.8 +24.0
21 20.05 В 1 10 км 8/3 600 м
[Sc diur, vesp Ac cast Ci fib]
+19.0 +14.7 76 +21 +21 комфорт 1015.1 1014.7
00 21.05 штиль 0 10 км 9/4 300 м
[Sc Ac trans]
+18.7 +9.0 53 +19 +19 1014.4 1014.0
03 21.05 штиль 0 20 км 9/5 300 м
[Sc Ac As]
+17.9 +18.2 100 +18 +18 1013.8 1013.4 +17.4
06 21.05 СВ 1 10 км 9/5 600 м
[Cb calv Ac As]
+18.1 +12.8 71 +19 +21 1014.0 1013.6 +17.4
09 21.05 В 1 10 км 8/6 600 м
[Cu med, cong Ac trans Ci fib]
+18.3 +13.9 76 +20 +24 1013.8 1013.4
12 21.05 СВ 3 10 км 9/6 300 м
[Cb calv Ac trans]
+19.5 +12.6 64 +21 +23 комфорт 1012.7 1012.3
15 21.05 В 1 10 км {гроза} 9/5 300 м
[Cb calv Ac cuf Ci ing]
+20.7 +17.6 82 +26 +27 душно 1012.5 1012.1
18 21.05 В 3 10 км {гроза} 8/5 300 м
[Cb calv Ci ing]
+17.9 +13.5 75 +18 +18 1012.3 1011.9 +21.4
21 21.05 В 2 10 км 8/3 300 м
[Cb calv Ac trans Ci sp]
+15.9 +14.1 89 +16 +16 1012.3 1011.9
00 22.05 В 2 10 км 8/0
[Ac trans]
+15.2 +13.0 87 +15 +15 1012.1 1011.6
03 22.05 В 2 4000 м дымка 3/0
[Ci fib]
+14.3 +13.2 93 +14 +15 1011.8 1011.3 +14.0
06 22.05 В 2 20 км 4/0
[Ci fib]
+16.7 +13.1 79 +17 +23 1011.8 1011.4 +14.0
09 22.05 В 3 20 км 6/0
[Ci fib]
+17.8 +12.8 73 +18 +27 1011.2 1010.8
12 22.05 В 4 20 км 4/3 600 м
[Cu hum Cc]
+19.3 +13.1 67 +21 +26 комфорт 1009.8 1009.4
15 22.05 штиль 0 20 км 4/3 600 м
[Cu med, cong Ci fib]
+20.0 +13.2 65 +22 +26 комфорт 1008.6 1008.2
18 22.05 ЮВ 2 20 км 8/3
[Cu med, cong Cs]
+18.8 +14.9 78 +20 +20 1007.4 1007.0 +20.2
21 22.05 СВ 4 20 км 9/9 300 м
[Sc]
+16.9 +13.9 82 +16 +16 1007.1 1006.7
00 23.05 Ю 4 10 км слаб. дождь 10/0
[As trans]
+15.5 +13.2 86 +15 +15 1007.3 1006.8
03 23.05 СВ 4 10 км {дождь} 10/10 480 м
[Sc]
+13.9 +12.1 89 +12 +12 1007.8 1007.4 +13.5 0.3
06 23.05 СВ 6-12
{12}
20 км {дождь} 10/10 300 м
[Sc]
+9.3 +7.4 88 +6 +6 1010.7 1010.2 +9.3 0.3
09 23.05 СВ 5
{12}
20 км 10/10 300 м
[Sc]
+8.1 +5.0 81 +4 +4 1012.9 1012.4
12 23.05 В 5 20 км 9/8 600 м
[Sc Ac trans]
+8.5 +4.2 74 +5 +6 1013.4 1012.9
15 23.05 СВ 3 20 км 8/0
[Ac trans Ci fib]
+9.7 +2.1 59 +8 +10 1013.1 1012.6
18 23.05 В 3 20 км 8/3 600 м
[Sc Ac trans Ci fib]
+10.2 +1.3 54 +8 +9 1013.6 1013.1 +10.3
21 23.05 В 2 20 км 9/6 600 м
[Cb calv Ac trans]
+9.9 +1.5 56 +9 +9 1013.8 1013.3
00 24.05 В 3 20 км 9/8 600 м
[Sc diur, vesp Ac trans Ci fib]
+9.8 +3.1 63 +8 +8 1014.0 1013.5
03 24.05 В 2 20 км 9/5 600 м
[Sc diur, vesp Ac trans]
+8.8 +3.2 68 +7 +7 1014.7 1014.2 +8.5
06 24.05 В 2 20 км 9/9 600 м
[Sc]
+9.2 +2.6 63 +8 +9 1014.3 1013.8 +8.1
09 24.05 В 3 20 км 9/9 600 м
[Sc]
+10.6 +3.6 62 +9 +10 1013.6 1013.1
12 24.05 В 2 20 км 9/5 600 м
[Sc Ac trans]
+12.7 +4.7 58 +12 +15 1012.5 1012.0
15 24.05 В 2 20 км 10/9 600 м
[Sc Ac As]
+13.8 +5.3 56 +13 +14 1010.7 1010.2
18 24.05 В 2 10 км 10/0
[Ac As]
+13.7 +6.4 61 +13 +13 1010.2 1009.7 +14.1
21 24.05 штиль 0 4000 м слаб. дождь 10/0 300 м
[As op]
+12.8 +8.6 76 +12 +12 1009.3 1008.8
00 25.05 ЮВ 1 2000 м морось {дождь} 10/10 300 м
[St]
+10.9 +10.1 95 +10 +10 1007.8 1007.3
03 25.05 штиль 0 2000 м дымка 10/10 300 м
[St]
+11.2 +10.6 96 +10 +10 1006.2 1005.7 +10.3 1
06 25.05 З 1 4000 м дымка 10/10 300 м
[St]
+11.9 +10.9 94 +12 +12 1005.5 1005.0 +10.3 1
09 25.05 З 2 10 км 8/4 300 м
[Cu med, cong Ac As Ci sp]
+12.2 +10.3 88 +11 +16 1004.6 1004.1
12 25.05 З 2 4000 м слаб. ливневой дождь 10/10 300 м
[Cb calv]
+12.4 +11.3 93 +11 +11 1003.8 1003.3
15 25.05 З 4
{11}
4000 м слаб. ливневой дождь 10/10 300 м
[Cb calv]
+15.1 +12.6 85 +14 +14 1002.1 1001.6 2
18 25.05 З 3
{11}
20 км {гроза, ливн. осадки} 8/8 300 м
[Cb calv]
+10.5 +8.7 89 +8 +8 1002.1 1001.6 +15.2 4
21 25.05 ЮЗ 2
{10}
10 км 8/8 300 м
[Cb calv]
+9.9 +8.0 88 +8 +8 1002.0 1001.5
00 26.05 З 3
{10}
10 км 10/10 450 м
[Sc]
+9.8 +8.2 90 +7 +7 1001.6 1001.1
03 26.05 З 3
{10}
н/о +9.5 +8.5 93 +7 +7 1001.6 1001.1 +9.2 3
06 26.05 З 4 н/о +9.3 +7.6 89 +6 +6 1002.5 1002.0 +9.1 201
09 26.05 СЗ 3 20 км 10/10 300 м
[Sc]
+9.8 +7.9 88 +7 +7 1002.8 1002.3
12 26.05 З 4 20 км 9/8 300 м
[Cb calv Ci fib]
+14.3 +6.7 60 +13 +15 1002.1 1001.6
15 26.05 З 3 10 км слаб. дождь 10/10 300 м
[Frnb Ns]
+12.9 +10.4 85 +11 +11 1000.7 1000.2 0.5
18 26.05 З 4 2000 м дождь 10/10 300 м
[Frnb Ns]
+10.0 +8.8 92 +7 +7 999.6 999.1 +14.5 4
21 26.05 штиль 0 20 км {дождь} 9/9 300 м
[Sc]
+9.2 +8.6 96 +8 +8 998.4 997.9
00 27.05 ЮЗ 2 10 км {дождь} 4/3 300 м
[Sc Ac trans]
+8.1 +7.2 94 +6 +6 998.2 997.7

 

Местоположение метеостанции Ломоносов (город Санкт-Петербург, Россия): широта 59.92 долгота 29.78 высота над уровнем моря 4 м.

В архиве по умолчанию представлена погода в Ломоносове за последнюю неделю. Архивные данные за месяц целиком и за предыдущие месяцы, начиная с января 2011 года, Вы можете получить, выбрав интересующий диапазон дат из раскрывающегося списка и нажав кнопку "Ввод!".


*Определитесь, кто Вы:
робот инопланетянин человек

Внимание! Время в таблицах - всемирное. Для получения местного времени необходимо прибавить поправку, которая равна 3 ч.

Смотрите также архив погоды в соседних городах и на ближайших метеорологических станциях:

Погода в Кронштадте (город Санкт-Петербург, Россия) (7 км)
Погода в Лисьем Носу (город Санкт-Петербург, Россия) (16 км)
Погода в Шепелево (Ленинградская область, Россия) (29 км)
Погода в Санкт-Петербурге (город Санкт-Петербург, Россия) (29 км)
Погода в Сосновом Бору (Ленинградская область, Россия) (36 км)
Погода в Рощино (Ленинградская область, Россия) (38 км)
Погода в Воейково (город Санкт-Петербург, Россия) (51 км)
Погода в Озерках (Ленинградская область, Россия) (53 км)
Погода в Волосово (Ленинградская область, Россия) (57 км)
Погода в Белогорке (Ленинградская область, Россия) (66 км)

Пояснения к столбцам:

Ветер - указаны скорость ветра в м/с - средняя за 10 мин, порывы в срок и между сроками (в фигурных скобках) и направление, откуда дует ветер: С - северный, СВ - северо-восточный, В - восточный, ЮВ - юго-восточный, Ю - южный, ЮЗ - юго-западный, З - западный, СЗ - северо-западный.
Видимость - горизонтальная дальность видимости в метрах или километрах. При видимости от 1 до 10 км при отсутствии осадков обычно наблюдается дымка, при ухудшении видимости до 1 км и менее - туман. В сухую погоду видимость может ухудшаться дымом, пылью или мглою.
Явления - указаны атмосферные явления, наблюдавшиеся в срок или в последний час перед сроком; фигурными скобками обозначены явления, наблюдавшиеся между сроками (за 1-3 часа до срока); квадратными скобками обозначены град или гололедные отложения с указанием их диаметра в мм.
Облачность - указаны через наклонную черту общая и нижняя облачность в баллах и высота нижней границы облаков в метрах; квадратными скобками обозначены формы облаков: Ci - перистые, Cs - перисто-слоистые, Cc - перисто-кучевые, Ac - высококучевые, As - высокослоистые, Sc - слоисто-кучевые, Ns - слоисто-дождевые, Cu - кучевые, Cb - кучево-дождевые. Подробнее классификацию облаков см. в Атласе облаков (PDF).
T - Температура воздуха - температура, измеренная на высоте 2 м над землей.
Td - Температура точки росы - температура, при понижении до которой содержащийся в воздухе водяной пар достигнет насыщения.
f - Относительная влажность воздуха - влажноcть воздуха, измеренная на высоте 2 м над землей.
Te - Эффективная температура - температура, которую ощущает одетый по сезону человек в тени. Характеристика душности погоды. При расчете учитывается влияние влажности воздуха и скорости ветра на теплоощущения человека.
Tes - Эффективная температура на солнце - температура, которую ощущает человек, с поправкой на солнечный нагрев. Характеристика знойности погоды. Зависит от высоты солнца над горизонтом, облачности и скорости ветра. Ночью, в пасмурную погоду, а также при ветре 12 м/с и более поправка равна нулю.
P - Атмосферное давление - приведенное к уровню моря атмосферное давление.
Po - Атмосферное давление - измеренное на уровне метеостанции атмосферное давление.
Tmin - Минимальная температура - минимум температуры воздуха на высоте 2 м над землей.
Tmax - Максимальная температура - максимум температуры воздуха на высоте 2 м над землей.
R - Количество осадков - Количество выпавших осадков за период времени, мм. При наведении курсора мыши на число - период времени, за который выпало указанное количество осадков.
R24 - Количество осадков - Количество выпавших осадков за 24 часа, мм.
S - Снежный покров - Высота снежного покрова, см. При наведении курсора мыши на число - состояние снежного покрова и степень покрытия местности в баллах.